Hourly Weather Tamale

Today, 11 July, Saturday

Time Temperature Precipitation Wind Pressure Humidity
00:00 +24°C° 0 mm 1 mps 743 mmHg 97%
01:00 +24°C° 0 mm 1 mps 743 mmHg 97%
02:00 +24°C° 0 mm 1 mps 743 mmHg 97%
03:00 +24°C° 0 mm 1 mps 743 mmHg 98%
04:00 +24°C° 0 mm 1 mps 743 mmHg 98%
05:00 +24°C° 0 mm 1 mps 743 mmHg 98%
06:00 +24°C° 0 mm 1 mps 743 mmHg 98%
07:00 +25°C° 0.1 mm 1 mps 744 mmHg 95%
08:00 +25°C° 0.1 mm 1 mps 744 mmHg 93%
09:00 +26°C° 0.1 mm 2 mps 744 mmHg 90%
10:00 +27°C° 0.3 mm 2 mps 744 mmHg 86%
11:00 +28°C° 0.3 mm 2 mps 744 mmHg 81%
12:00 +29°C° 0.3 mm 2 mps 743 mmHg 77%
13:00 +30°C° 0.2 mm 2 mps 743 mmHg 74%
14:00 +30°C° 0.2 mm 2 mps 742 mmHg 72%
15:00 +31°C° 0.2 mm 2 mps 741 mmHg 70%
16:00 +30°C° 0.5 mm 2 mps 741 mmHg 76%
17:00 +29°C° 0.5 mm 2 mps 741 mmHg 81%
18:00 +27°C° 0.5 mm 2 mps 741 mmHg 87%
19:00 +27°C° 1.3 mm 2 mps 742 mmHg 89%
20:00 +26°C° 1.3 mm 2 mps 742 mmHg 92%
21:00 +25°C° 1.3 mm 2 mps 743 mmHg 94%
22:00 +25°C° 0.1 mm 2 mps 743 mmHg 95%
23:00 +25°C° 0.1 mm 2 mps 743 mmHg 95%

Tomorrow, 12 July, Sunday

Time Temperature Precipitation Wind Pressure Humidity
00:00 +25°C° 0.1 mm 1 mps 743 mmHg 96%
01:00 +25°C° 0 mm 1 mps 743 mmHg 96%
02:00 +24°C° 0 mm 1 mps 743 mmHg 96%
03:00 +24°C° 0 mm 1 mps 742 mmHg 96%
04:00 +24°C° 0.4 mm 1 mps 743 mmHg 96%
05:00 +24°C° 0.4 mm 1 mps 743 mmHg 97%
06:00 +24°C° 0.4 mm 1 mps 744 mmHg 97%
07:00 +25°C° 0.3 mm 1 mps 744 mmHg 95%
08:00 +25°C° 0.3 mm 1 mps 744 mmHg 94%
09:00 +26°C° 0.3 mm 2 mps 745 mmHg 93%
10:00 +27°C° 1.3 mm 2 mps 744 mmHg 89%
11:00 +28°C° 1.3 mm 3 mps 744 mmHg 86%
12:00 +29°C° 1.3 mm 3 mps 744 mmHg 82%
13:00 +29°C° 1.1 mm 3 mps 743 mmHg 82%
14:00 +29°C° 1.1 mm 3 mps 742 mmHg 81%
15:00 +29°C° 1.1 mm 2 mps 742 mmHg 80%
16:00 +28°C° 0.2 mm 2 mps 742 mmHg 83%
17:00 +28°C° 0.2 mm 1 mps 742 mmHg 86%
18:00 +27°C° 0.2 mm 1 mps 742 mmHg 89%
19:00 +27°C° 0 mm 1 mps 743 mmHg 90%
20:00 +26°C° 0 mm 1 mps 743 mmHg 91%
21:00 +26°C° 0 mm 1 mps 743 mmHg 92%
22:00 +26°C° 0.1 mm 1 mps 743 mmHg 93%
23:00 +25°C° 0.1 mm 1 mps 744 mmHg 93%

Day after tomorrow, 13 July, Monday

Time Temperature Precipitation Wind Pressure Humidity
00:00 +25°C° 0.1 mm 1 mps 744 mmHg 94%
01:00 +25°C° 0 mm 1 mps 743 mmHg 95%
02:00 +24°C° 0 mm 1 mps 743 mmHg 96%
03:00 +24°C° 0 mm 1 mps 743 mmHg 96%
04:00 +24°C° 0.1 mm 1 mps 743 mmHg 96%
05:00 +24°C° 0.1 mm 1 mps 743 mmHg 96%
06:00 +24°C° 0.1 mm 1 mps 743 mmHg 96%
07:00 +25°C° 0.1 mm 2 mps 744 mmHg 91%
08:00 +26°C° 0.1 mm 3 mps 744 mmHg 87%
09:00 +27°C° 0.1 mm 3 mps 744 mmHg 83%
10:00 +28°C° 0.1 mm 3 mps 744 mmHg 78%
11:00 +29°C° 0.1 mm 3 mps 744 mmHg 73%
12:00 +31°C° 0.1 mm 3 mps 744 mmHg 68%
13:00 +31°C° 0.1 mm 3 mps 743 mmHg 67%
14:00 +31°C° 0.1 mm 3 mps 742 mmHg 66%
15:00 +31°C° 0.1 mm 3 mps 742 mmHg 64%
16:00 +30°C° 2.2 mm 2 mps 741 mmHg 73%
17:00 +28°C° 2.2 mm 2 mps 741 mmHg 82%
18:00 +27°C° 2.2 mm 1 mps 741 mmHg 91%
19:00 +26°C° 0.8 mm 1 mps 742 mmHg 92%
20:00 +26°C° 0.8 mm 1 mps 742 mmHg 93%
21:00 +25°C° 0.8 mm 1 mps 742 mmHg 95%
22:00 +25°C° 0.8 mm 2 mps 742 mmHg 95%
23:00 +25°C° 0.8 mm 2 mps 742 mmHg 95%

14 July, Tuesday

Time Temperature Precipitation Wind Pressure Humidity
00:00 +25°C° 0.8 mm 2 mps 742 mmHg 96%
01:00 +25°C° 1.6 mm 2 mps 742 mmHg 96%
02:00 +25°C° 1.6 mm 2 mps 742 mmHg 96%
03:00 +24°C° 1.6 mm 2 mps 742 mmHg 96%
04:00 +24°C° 5.6 mm 2 mps 742 mmHg 97%
05:00 +24°C° 5.6 mm 2 mps 742 mmHg 97%
06:00 +24°C° 5.6 mm 2 mps 742 mmHg 98%
07:00 +24°C° 3.9 mm 3 mps 742 mmHg 97%
08:00 +24°C° 3.9 mm 3 mps 743 mmHg 96%
09:00 +23°C° 3.9 mm 4 mps 743 mmHg 96%
10:00 +23°C° 1.4 mm 4 mps 743 mmHg 96%
11:00 +22°C° 1.4 mm 3 mps 743 mmHg 96%
12:00 +22°C° 1.4 mm 3 mps 743 mmHg 96%
13:00 +22°C° 0.2 mm 3 mps 742 mmHg 95%
14:00 +23°C° 0.2 mm 4 mps 742 mmHg 94%
15:00 +23°C° 0.2 mm 4 mps 742 mmHg 93%
16:00 +24°C° 0.1 mm 3 mps 741 mmHg 92%
17:00 +24°C° 0.1 mm 3 mps 741 mmHg 92%
18:00 +24°C° 0.1 mm 2 mps 741 mmHg 92%
19:00 +24°C° 0 mm 2 mps 742 mmHg 93%
20:00 +23°C° 0 mm 2 mps 742 mmHg 94%
21:00 +23°C° 0 mm 1 mps 743 mmHg 95%
22:00 +23°C° 0 mm 1 mps 743 mmHg 96%
23:00 +23°C° 0 mm 1 mps 742 mmHg 97%

15 July, Wednesday

Time Temperature Precipitation Wind Pressure Humidity
00:00 +22°C° 0 mm 1 mps 742 mmHg 98%
01:00 +22°C° 0 mm 1 mps 742 mmHg 98%
02:00 +22°C° 0 mm 1 mps 742 mmHg 98%
03:00 +22°C° 0 mm 1 mps 742 mmHg 98%
04:00 +22°C° 0 mm 1 mps 742 mmHg 98%
05:00 +22°C° 0 mm 1 mps 742 mmHg 98%
06:00 +22°C° 0 mm 1 mps 742 mmHg 98%
07:00 +24°C° 0 mm 2 mps 743 mmHg 92%
08:00 +25°C° 0 mm 3 mps 744 mmHg 87%
09:00 +26°C° 0 mm 4 mps 744 mmHg 81%
10:00 +27°C° 0.1 mm 4 mps 744 mmHg 78%
11:00 +28°C° 0.1 mm 4 mps 744 mmHg 76%
12:00 +28°C° 0.1 mm 3 mps 744 mmHg 73%
13:00 +28°C° 0.2 mm 3 mps 743 mmHg 74%
14:00 +29°C° 0.2 mm 3 mps 743 mmHg 74%
15:00 +29°C° 0.2 mm 3 mps 742 mmHg 75%
16:00 +28°C° 0.1 mm 3 mps 742 mmHg 79%
17:00 +27°C° 0.1 mm 2 mps 742 mmHg 83%
18:00 +26°C° 0.1 mm 1 mps 742 mmHg 86%
19:00 +26°C° 0 mm 1 mps 743 mmHg 88%
20:00 +25°C° 0 mm 1 mps 743 mmHg 90%
21:00 +24°C° 0 mm 1 mps 744 mmHg 92%
22:00 +24°C° 0 mm 1 mps 743 mmHg 93%
23:00 +24°C° 0 mm 1 mps 743 mmHg 94%

16 July, Thursday

Time Temperature Precipitation Wind Pressure Humidity
00:00 +23°C° 0 mm 1 mps 743 mmHg 95%
01:00 +23°C° 0 mm 1 mps 743 mmHg 95%
02:00 +23°C° 0 mm 1 mps 743 mmHg 95%
03:00 +23°C° 0 mm 1 mps 743 mmHg 95%
04:00 +23°C° 0 mm 1 mps 743 mmHg 95%
05:00 +22°C° 0 mm 1 mps 743 mmHg 95%
06:00 +22°C° 0 mm 1 mps 744 mmHg 95%
07:00 +24°C° 0 mm 1 mps 744 mmHg 89%
08:00 +25°C° 0 mm 2 mps 745 mmHg 82%
09:00 +27°C° 0 mm 2 mps 746 mmHg 75%
10:00 +28°C° 0.1 mm 3 mps 745 mmHg 73%
11:00 +28°C° 0.1 mm 3 mps 745 mmHg 71%
12:00 +29°C° 0.1 mm 3 mps 744 mmHg 68%
13:00 +29°C° 0.3 mm 3 mps 744 mmHg 69%
14:00 +30°C° 0.3 mm 3 mps 743 mmHg 69%
15:00 +30°C° 0.3 mm 3 mps 742 mmHg 70%
16:00 +29°C° 0.6 mm 2 mps 742 mmHg 75%
17:00 +28°C° 0.6 mm 1 mps 742 mmHg 81%
18:00 +27°C° 0.6 mm 1 mps 742 mmHg 86%
19:00 +26°C° 0.1 mm 1 mps 743 mmHg 87%
20:00 +26°C° 0.1 mm 1 mps 743 mmHg 88%
21:00 +25°C° 0.1 mm 1 mps 743 mmHg 90%
22:00 +25°C° 0 mm 1 mps 743 mmHg 91%
23:00 +24°C° 0 mm 1 mps 743 mmHg 92%
Show more